This is the latest recevied weather packets stored in our database for station/object VANOK. If no packets are shown the sender has not sent any weather packets the latest 1 day(s).
| Time | Temp. | Humidity | Pressure | Rain* | Wind** | Luminosity | Snow |
|---|---|---|---|---|---|---|---|
| 1836274175 | 16.67° C | 96% | - | - | 10.73 m/s, 221° | - | - |
| 1778034444 | 3.89° C | 80% | 1011.3 hPa | - | 4.02 m/s, 282° | - | - |
| 1778033244 | 4.44° C | 78% | 1011.1 hPa | - | 4.02 m/s, 289° | - | - |
| 1778032044 | 4.44° C | 81% | 1010.9 hPa | - | 4.02 m/s, 296° | - | - |
| 1778030844 | 4.44° C | 80% | 1010.7 hPa | - | 4.02 m/s, 282° | - | - |
| 1778029645 | 4.44° C | 81% | 1010.5 hPa | - | 4.02 m/s, 280° | - | - |
| 1778028444 | 4.44° C | 82% | 1010.3 hPa | - | 4.02 m/s, 276° | - | - |
| 1778027244 | 3.89° C | 89% | 1010.2 hPa | - | 3.58 m/s, 272° | - | - |
| 1778026044 | 4.44° C | 86% | 1010.1 hPa | - | 3.13 m/s, 261° | - | - |
| 1778024844 | 4.44° C | 84% | 1010 hPa | - | 4.02 m/s, 271° | - | - |
| 1778023644 | 4.44° C | 87% | 1009.9 hPa | - | 4.02 m/s, 270° | - | - |
| 1778022444 | 4.44° C | 90% | 1009.9 hPa | - | 4.02 m/s, 265° | - | - |
| 1778021244 | 4.44° C | 90% | 1009.8 hPa | - | 3.58 m/s, 257° | - | - |
| 1778020043 | 3.89° C | 90% | 1009.8 hPa | - | 4.02 m/s, 252° | - | - |
| 1778018844 | 4.44° C | 89% | 1009.7 hPa | - | 3.13 m/s, 255° | - | - |
| 1778017644 | 3.89° C | 90% | 1009.7 hPa | - | 3.13 m/s, 265° | - | - |
| 1778016444 | 4.44° C | 88% | 1009.6 hPa | - | 4.02 m/s, 258° | - | - |
| 1778015243 | 4.44° C | 88% | 1009.5 hPa | - | 4.02 m/s, 254° | - | - |
| 1778014044 | 4.44° C | 89% | 1009.5 hPa | - | 4.02 m/s, 254° | - | - |
| 1778012844 | 4.44° C | 89% | 1009.4 hPa | - | 4.02 m/s, 256° | - | - |
| 1778011643 | 4.44° C | 90% | 1009.2 hPa | - | 4.02 m/s, 258° | - | - |
| 1778010442 | 4.44° C | 88% | 1009.1 hPa | - | 4.92 m/s, 258° | - | - |
| 1778009243 | 5° C | 86% | 1009.1 hPa | - | 4.47 m/s, 262° | - | - |
| 1778008043 | 4.44° C | 85% | 1009.1 hPa | - | 3.58 m/s, 263° | - | - |
| 1778006843 | 5° C | 76% | 1008.9 hPa | - | 3.58 m/s, 270° | - | - |
* Rain since midnight (hover to see other rain measurements)
** Current wind speed in m/s (hover to see current wind gust speed)